• In Deutschland
  • Länderverzeichnis
  • Für 7 Tage
  • Wassertemperatur
  • Satellitenkarten
  • Wetterkarte
  • Widgets
  • user-avatar
    Anmelden

    Stündliche Wetter La Massana

    Heute, 29 Mai, Montag

    Zeit Temperatur Niederschläge Wind Luftdruck Luftfeuchtigkeit
    00:00 +8°C° 0 mm 2 m/S 612 mmHg 72%
    01:00 +8°C° 0 mm 2 m/S 612 mmHg 68%
    02:00 +7°C° 0 mm 2 m/S 611 mmHg 65%
    03:00 +7°C° 0 mm 2 m/S 611 mmHg 62%
    04:00 +8°C° 0 mm 2 m/S 611 mmHg 60%
    05:00 +10°C° 0 mm 1 m/S 612 mmHg 57%
    06:00 +11°C° 0 mm 1 m/S 612 mmHg 53%
    07:00 +12°C° 0 mm 1 m/S 613 mmHg 48%
    08:00 +14°C° 0 mm 2 m/S 614 mmHg 44%
    09:00 +16°C° 0 mm 2 m/S 614 mmHg 39%
    10:00 +17°C° 0 mm 2 m/S 615 mmHg 38%
    11:00 +17°C° 0 mm 2 m/S 615 mmHg 37%
    12:00 +18°C° 0 mm 2 m/S 615 mmHg 36%
    13:00 +18°C° 0,1 mm 3 m/S 615 mmHg 37%
    14:00 +18°C° 0,1 mm 3 m/S 615 mmHg 39%
    15:00 +18°C° 0,1 mm 3 m/S 614 mmHg 40%
    16:00 +17°C° 0,2 mm 3 m/S 614 mmHg 45%
    17:00 +16°C° 0,2 mm 2 m/S 613 mmHg 50%
    18:00 +14°C° 0,2 mm 2 m/S 613 mmHg 55%
    19:00 +12°C° 0,1 mm 1 m/S 612 mmHg 63%
    20:00 +10°C° 0,1 mm 1 m/S 611 mmHg 71%
    21:00 +8°C° 0,1 mm 1 m/S 611 mmHg 79%
    22:00 +7°C° 0,1 mm 1 m/S 610 mmHg 80%
    23:00 +7°C° 0,1 mm 1 m/S 610 mmHg 82%

    Morgen, 30 Mai, Dienstag

    Zeit Temperatur Niederschläge Wind Luftdruck Luftfeuchtigkeit
    00:00 +7°C° 0,1 mm 1 m/S 610 mmHg 83%
    01:00 +6°C° 0 mm 1 m/S 610 mmHg 85%
    02:00 +5°C° 0 mm 1 m/S 609 mmHg 88%
    03:00 +4°C° 0 mm 0 m/S 609 mmHg 90%
    04:00 +5°C° 0,1 mm 0 m/S 610 mmHg 85%
    05:00 +7°C° 0,1 mm 0 m/S 611 mmHg 81%
    06:00 +9°C° 0,1 mm 0 m/S 612 mmHg 76%
    07:00 +11°C° 0 mm 1 m/S 613 mmHg 68%
    08:00 +13°C° 0 mm 1 m/S 614 mmHg 61%
    09:00 +14°C° 0 mm 1 m/S 614 mmHg 53%
    10:00 +15°C° 0,2 mm 2 m/S 615 mmHg 52%
    11:00 +15°C° 0,2 mm 2 m/S 615 mmHg 51%
    12:00 +16°C° 0,2 mm 2 m/S 615 mmHg 50%
    13:00 +16°C° 0,3 mm 2 m/S 615 mmHg 52%
    14:00 +15°C° 0,3 mm 2 m/S 614 mmHg 54%
    15:00 +15°C° 0,3 mm 2 m/S 614 mmHg 56%
    16:00 +14°C° 0,2 mm 2 m/S 614 mmHg 60%
    17:00 +13°C° 0,2 mm 2 m/S 614 mmHg 65%
    18:00 +12°C° 0,2 mm 1 m/S 614 mmHg 69%
    19:00 +10°C° 0,1 mm 1 m/S 613 mmHg 77%
    20:00 +9°C° 0,1 mm 1 m/S 613 mmHg 84%
    21:00 +6°C° 0,1 mm 0 m/S 612 mmHg 91%
    22:00 +7°C° 0,1 mm 1 m/S 612 mmHg 92%
    23:00 +6°C° 0,1 mm 1 m/S 612 mmHg 93%

    übermorgen, 31 Mai, Mittwoch

    Zeit Temperatur Niederschläge Wind Luftdruck Luftfeuchtigkeit
    00:00 +6°C° 0,1 mm 1 m/S 612 mmHg 93%
    01:00 +6°C° 0 mm 1 m/S 612 mmHg 94%
    02:00 +6°C° 0 mm 1 m/S 612 mmHg 94%
    03:00 +5°C° 0 mm 1 m/S 611 mmHg 94%
    04:00 +6°C° 0,1 mm 0 m/S 612 mmHg 91%
    05:00 +7°C° 0,1 mm 0 m/S 613 mmHg 87%
    06:00 +8°C° 0,1 mm 0 m/S 614 mmHg 83%
    07:00 +10°C° 0,2 mm 0 m/S 614 mmHg 76%
    08:00 +12°C° 0,2 mm 1 m/S 615 mmHg 69%
    09:00 +14°C° 0,2 mm 1 m/S 616 mmHg 62%
    10:00 +14°C° 0,9 mm 1 m/S 616 mmHg 62%
    11:00 +15°C° 0,9 mm 1 m/S 616 mmHg 62%
    12:00 +15°C° 0,9 mm 1 m/S 616 mmHg 62%
    13:00 +14°C° 2 mm 1 m/S 615 mmHg 65%
    14:00 +14°C° 2 mm 1 m/S 615 mmHg 68%
    15:00 +13°C° 2 mm 1 m/S 614 mmHg 71%
    16:00 +13°C° 1,1 mm 1 m/S 614 mmHg 74%
    17:00 +12°C° 1,1 mm 1 m/S 614 mmHg 77%
    18:00 +12°C° 1,1 mm 1 m/S 614 mmHg 80%
    19:00 +10°C° 0,1 mm 1 m/S 613 mmHg 83%
    20:00 +9°C° 0,1 mm 1 m/S 613 mmHg 86%
    21:00 +6°C° 0,1 mm 0 m/S 613 mmHg 89%
    22:00 +5°C° 0 mm 0 m/S 612 mmHg 90%
    23:00 +5°C° 0 mm 0 m/S 612 mmHg 90%

    1 Juni, Donnerstag

    Zeit Temperatur Niederschläge Wind Luftdruck Luftfeuchtigkeit
    00:00 +4°C° 0 mm 0 m/S 612 mmHg 90%
    01:00 +4°C° 0 mm 0 m/S 611 mmHg 90%
    02:00 +4°C° 0 mm 0 m/S 611 mmHg 90%
    03:00 +4°C° 0 mm 1 m/S 611 mmHg 90%
    04:00 +7°C° 0 mm 1 m/S 612 mmHg 85%
    05:00 +9°C° 0 mm 1 m/S 613 mmHg 81%
    06:00 +11°C° 0 mm 1 m/S 614 mmHg 77%
    07:00 +13°C° 0 mm 1 m/S 615 mmHg 67%
    08:00 +15°C° 0 mm 1 m/S 616 mmHg 58%
    09:00 +18°C° 0 mm 1 m/S 617 mmHg 49%
    10:00 +18°C° 0 mm 1 m/S 617 mmHg 47%
    11:00 +19°C° 0 mm 1 m/S 617 mmHg 44%
    12:00 +20°C° 0 mm 1 m/S 618 mmHg 41%
    13:00 +19°C° 0,1 mm 1 m/S 617 mmHg 46%
    14:00 +19°C° 0,1 mm 1 m/S 616 mmHg 51%
    15:00 +18°C° 0,1 mm 1 m/S 616 mmHg 56%
    16:00 +16°C° 0,3 mm 1 m/S 616 mmHg 61%
    17:00 +15°C° 0,3 mm 1 m/S 615 mmHg 67%
    18:00 +15°C° 0,3 mm 1 m/S 615 mmHg 72%
    19:00 +12°C° 0,1 mm 1 m/S 614 mmHg 78%
    20:00 +10°C° 0,1 mm 1 m/S 613 mmHg 85%
    21:00 +7°C° 0,1 mm 0 m/S 613 mmHg 91%
    22:00 +6°C° 0 mm 0 m/S 612 mmHg 91%
    23:00 +6°C° 0 mm 0 m/S 612 mmHg 91%

    2 Juni, Freitag

    Zeit Temperatur Niederschläge Wind Luftdruck Luftfeuchtigkeit
    00:00 +6°C° 0 mm 0 m/S 612 mmHg 91%
    01:00 +7°C° 0 mm 1 m/S 612 mmHg 90%
    02:00 +6°C° 0 mm 1 m/S 611 mmHg 90%
    03:00 +6°C° 0 mm 1 m/S 611 mmHg 90%
    04:00 +8°C° 0 mm 1 m/S 612 mmHg 86%
    05:00 +10°C° 0 mm 1 m/S 613 mmHg 82%
    06:00 +12°C° 0 mm 1 m/S 614 mmHg 78%
    07:00 +14°C° 0,1 mm 1 m/S 615 mmHg 71%
    08:00 +16°C° 0,1 mm 2 m/S 615 mmHg 63%
    09:00 +17°C° 0,1 mm 2 m/S 616 mmHg 56%
    10:00 +18°C° 0,3 mm 2 m/S 616 mmHg 55%
    11:00 +18°C° 0,3 mm 2 m/S 616 mmHg 54%
    12:00 +19°C° 0,3 mm 3 m/S 616 mmHg 53%
    13:00 +19°C° 0,4 mm 3 m/S 615 mmHg 52%
    14:00 +19°C° 0,4 mm 3 m/S 615 mmHg 51%
    15:00 +19°C° 0,4 mm 3 m/S 615 mmHg 50%
    16:00 +18°C° 0,2 mm 3 m/S 614 mmHg 55%
    17:00 +18°C° 0,2 mm 2 m/S 614 mmHg 59%
    18:00 +17°C° 0,2 mm 2 m/S 613 mmHg 64%
    19:00 +14°C° 0,1 mm 2 m/S 612 mmHg 72%
    20:00 +12°C° 0,1 mm 2 m/S 612 mmHg 80%
    21:00 +8°C° 0,1 mm 2 m/S 611 mmHg 88%
    22:00 +8°C° 0 mm 2 m/S 610 mmHg 88%
    23:00 +9°C° 0 mm 1 m/S 610 mmHg 88%

    3 Juni, Samstag

    Zeit Temperatur Niederschläge Wind Luftdruck Luftfeuchtigkeit
    00:00 +8°C° 0 mm 1 m/S 609 mmHg 88%
    01:00 +8°C° 0 mm 1 m/S 609 mmHg 88%
    02:00 +7°C° 0 mm 1 m/S 609 mmHg 88%
    03:00 +7°C° 0 mm 1 m/S 609 mmHg 88%
    04:00 +8°C° 0,1 mm 1 m/S 610 mmHg 86%
    05:00 +10°C° 0,1 mm 1 m/S 610 mmHg 83%
    06:00 +11°C° 0,1 mm 1 m/S 611 mmHg 80%
    07:00 +12°C° 0,1 mm 1 m/S 612 mmHg 75%
    08:00 +14°C° 0,1 mm 2 m/S 612 mmHg 69%
    09:00 +15°C° 0,1 mm 2 m/S 613 mmHg 64%
    10:00 +15°C° 0,4 mm 2 m/S 613 mmHg 65%
    11:00 +15°C° 0,4 mm 2 m/S 613 mmHg 67%
    12:00 +15°C° 0,4 mm 2 m/S 613 mmHg 68%
    13:00 +14°C° 1,3 mm 2 m/S 613 mmHg 71%
    14:00 +14°C° 1,3 mm 2 m/S 612 mmHg 74%
    15:00 +13°C° 1,3 mm 2 m/S 612 mmHg 77%
    16:00 +13°C° 0,9 mm 2 m/S 612 mmHg 80%
    17:00 +12°C° 0,9 mm 1 m/S 612 mmHg 83%
    18:00 +11°C° 0,9 mm 1 m/S 612 mmHg 86%
    19:00 +10°C° 1,1 mm 1 m/S 612 mmHg 89%
    20:00 +9°C° 1,1 mm 1 m/S 612 mmHg 92%
    21:00 +7°C° 1,1 mm 2 m/S 612 mmHg 95%
    22:00 +7°C° 1,1 mm 2 m/S 612 mmHg 96%
    23:00 +6°C° 1,1 mm 2 m/S 612 mmHg 96%
    Mehr zeigen